Время (UTC), дата Ветер
(°,м/с) 
Видим.   Явления Облачность Т
(°С)
Тd
(°С)
f(%) Тe
(°С)
Pmin
(гПа)
dP
(гПа)
Po
(мм)
O2
(г/м3)
Тmin Tmax R s Состояние
почвы
00 01.10.13 020 (С) 20000 м    10/0 средняя, верхняя 
[Ac lent|Cs]
+6 +0.4 67 +7  1018.3  -1  757  298           
03 01.10.13 090 (В) 20000 м    10/3 600 м кучево-дожд., средняя 
[Cb cap|Ac As]
+11.4 +3.8 59 +13  1015.5  -2.7  755  291           
06 01.10.13 270 (З) 20000 м    10/3 600 м кучево-дожд., средняя 
[Cb cap|Ac und]
+12.7 +5.4 61 +14  1013.5  -1.7  753  289           
12 01.10.13 020 (С) 10 км  слаб. дождь{ливн. осадки}  10/4 1000 м средняя 
[Sc|As op]
+8.8 +7.5 92 +10  1011.9  -1.1  752  292           
18 01.10.13 340 (С) 4000 м  дождь  10/10 300 м 
[Ns]
+7.6 +7.2 97 +9  1008.6  -1.6  749  293           
21 01.10.13 340 (С) 4000 м  дождь  10/10 270 м 
[St|Ns]
+7.8 +6.7 93 +8  1007.7  -0.9  749  292  +7.6    15    мокрая 
00 02.10.13 290 (З) 10 км  слаб. дождь  10/3 300 м средняя 
[St|Ac As]
+7.5 +6.4 93 +7  1007.6  -0.1  749  293           
03 02.10.13 290 (З) 20000 м  слаб. дождь  10/1 600 м средняя 
[St|As trans]
+9 +6.2 83 +9  1006.4  -1.2  748  291           
06 02.10.13 290 (З) 20000 м  {дождь}  10/4 1000 м средняя 
[Sc|Ac lent]
+8.2 +2.5 67 +8  1006  -0.4  747  292           
12 02.10.13 290 (З) 20000 м    ясно 
+4.6 -1.1 67 +4  1007  748  297           
15 02.10.13 320 (СЗ) 20000 м    ясно 
+3.5 -1.5 70 +3  1005.1  -1.9  747  297           
18 02.10.13 250 (З) 20000 м    ясно 
+1.7 -3.7 67 +2  1004.3  -0.9  746  299           
00 03.10.13 270 (З) 3{10}  20000 м    4/0 средняя, верхняя 
[Ac lent|Ci fib]
+2.4 -8 46 +1  1004.5  0.3  746  299  -2.5         
06 03.10.13 250 (З) 8-14{14}  20000 м    10/4 600 м кучево-дожд., средняя 
[Cb cap|Ac As]
+1.9 -5.3 59 -2  1004.3  746  299           
09 03.10.13 250 (З) 6-11{14}  20000 м    9/1 300 м средняя 
[St|Ac As]
+0.7 -5 66 -3  1005.6  1.2  747  301    +3.6       
12 03.10.13 250 (З) 6{14}  20000 м    10/10 600 м кучево-дожд. 
[Cb cap]
+0.9 -5.5 62 -2  1006.6  748  301           
18 03.10.13 250 (З) 7-12{14}  20000 м    10/0 верхняя 
[Cs]
+1.4 -5.9 58 -2  1007.4  0.2  748  301           
21 03.10.13 250 (З) 4{12}  20000 м    4/0 средняя, верхняя 
[Ac lent|Cs]
+0.9 -7.5 53 -1  1008.9  1.5  749  302  +0.5        замёрзшая 
00 04.10.13 250 (З) 7{12}  20000 м    ясно 
+3.5 -8.5 41 1011.1  2.4  751  300           
06 04.10.13 250 (З) 6-11{12}  20000 м    6/0 средняя, верхняя 
[Ac trans|Cc]
+11.7 -9.6 21 +10  1011  -0.7  751  291           
12 04.10.13 140 (ЮВ) 20000 м    9/3 600 м кучево-дожд., средняя, верхняя 
[Cb cap|Ac lent|Cs]
+6.1 -2.8 53 +6  1012.7  0.8  752  297           
15 04.10.13 020 (С) 20000 м    10/4 600 м кучево-дожд., средняя 
[Cb cap|Ac As]
+6 +0.4 67 +7  1011.5  -1.2  752  296           
18 04.10.13 340 (С) 20000 м  {ливн. осадки}  10/4 600 м кучево-дожд., средняя 
[Cb cap|Ac As]
+5.2 +2.8 85 +6  1010.9  -0.6  751  297           
00 05.10.13 250 (З) 20000 м    1/0 средняя 
[Ac lent]
+9.7 -0.3 50 +8  1017.3  4.2  756  294  +0.4         
06 05.10.13 250 (З) 5-10{13}  20000 м    1/1 1000 м 
[Cu hum]
+14.7 -4.3 27 +14  1020.3  1.5  758  290           
12 05.10.13 320 (СЗ) 20000 м    ясно 
+6 -4 49 +7  1027.2  2.9  763  301           
15 05.10.13 230 (ЮЗ) 20000 м    ясно 
+0.6 -3 77 +1  1029.8  2.4  765  308           
18 05.10.13 020 (С) 20000 м    ясно 
-1.3 -3.2 87 -1  1031.7  1.9  766  311           
00 06.10.13 320 (СЗ) 20000 м    ясно 
+5.3 -0.8 65 +6  1032.8  0.6  767  303           
03 06.10.13 230 (ЮЗ) 20000 м    ясно 
+13.5 -4.9 27 +14  1031.1  -1.4  766  295           
06 06.10.13 160 (Ю) 20000 м    ясно 
+15.7 -3.9 26 +17  1028.3  -2.8  764  292           
12 06.10.13 тихо ()   20000 м    ясно 
+6.2 +1.5 72 +6  1025.4  -1.8  762  300           
15 06.10.13 360 (С) 20000 м    ясно 
+4.3 -0.2 73 +5  1023.3  -2  760  302           
18 06.10.13 320 (СЗ) 20000 м    ясно 
+2 +0.4 89 +3  1020.9  -2.4  758  303           
00 07.10.13 020 (С) 20000 м    8/0 средняя, верхняя 
[Ac lent|Cc]
+6.1 -1.1 60 +7  1015.9  -2.3  755  298  +0.5         
03 07.10.13 140 (ЮВ) 20000 м    9/0 средняя, верхняя 
[Ac lent|Ci]
+14.9 +3.5 46 +15  1011.7  -3.8  752  287           
06 07.10.13 230 (ЮЗ) 6-10{12}  4000 м  мгла  9/1 600 м кучево-дожд., средняя, верхняя 
[Cb cap|Ac trans|Cc]
+21.6 +5.4 35 +22  1007.2  -4.2  749  279           
09 07.10.13 290 (З) 3{12}  10 км  {ливн. осадки}  10/9 600 м кучево-дожд., средняя 
[Cb cap|Ac trans]
+14.3 +6.4 59 +14  1008.7  1.2  750  286    +21.8  0.0     
12 07.10.13 270 (З) 5-10{16}  20000 м  {ливн. осадки}  1/1 1000 м 
[Sc diur, vesp]
+10.5 +0.5 50 +9  1011.7  2.8  752  292           
15 07.10.13 270 (З) 4{13}  20000 м    ясно 
+8 -4.8 40 +7  1013.7  753  295           
18 07.10.13 250 (З) 4{11}  20000 м    ясно 
+5.2 -3.3 54 +4  1015.3  1.4  754  299           
00 08.10.13 250 (З) 5{10}  20000 м    ясно 
+7.1 -3.5 47 +5  1017.7  1.2  756  297           
03 08.10.13 250 (З) 6{11}  20000 м    ясно 
+11.4 -5.6 30 +10  1016.9  -0.8  756  293           
06 08.10.13 250 (З) 4{10}  20000 м    ясно 
+14 -4.8 27 +14  1013.8  -2.8  753  289           
09 08.10.13 250 (З) 20000 м    ясно 
+10.4 -4.4 35 +10  1013.4  -0.6  753  293    +14.3       
12 08.10.13 250 (З) 20000 м    ясно 
+5.1 -3.5 54 +6  1013  -0.5  753  298           
15 08.10.13 180 (Ю) 20000 м    6/0 верхняя 
[Ci fib]
+7.6 -2.7 48 +8  1011.9  -1  752  295           
18 08.10.13 050 (СВ) 20000 м    ясно 
+3.2 -2.2 68 +3  1011.4  -0.6  751  300           
00 09.10.13 020 (С) 10 км    3/3 1000 м 
[Sc]
+3.4 -1.9 68 +4  1010.6  -0.2  751  299           
03 09.10.13 200 (Ю) 10 км    9/0 средняя 
[Ac As]
+9.5 -0.3 50 +11  1009.5  -1  750  292           
06 09.10.13 180 (Ю) 4000 м  мгла  8/0 средняя 
[Ac As]
+15.7 -2.7 28 +16  1007.4  -1.9  749  286           
12 09.10.13 270 (З) 10 км    ясно 
+6.1 -0.8 61 +7  1011.7  2.2  752  296           
15 09.10.13 340 (С) 20000 м    ясно 
+4.9 -1 66 +5  1013.4  1.7  753  298           
18 09.10.13 360 (С) 20000 м    ясно 
+3.1 -2 69 +2  1014.9  1.4  754  301           
00 10.10.13 050 (СВ) 20000 м    3/0 верхняя 
[Cs]
+5.7 +0 67 +7  1017.8  1.4  756  298           
03 10.10.13 020 (С) 20000 м    8/0 средняя, верхняя 
[Ac lent|Cc]
+12.6 +0.1 42 +13  1016.7  -0.8  756  291           
06 10.10.13 070 (В) 20000 м    4/0 верхняя 
[Ci fib]
+16.2 -4.2 24 +17  1014.3  -2.4  754  287           
12 10.10.13 050 (СВ) 20000 м    9/0 средняя, верхняя 
[Ac lent|Ci fib]
+9.3 -0.6 50 +9  1011.8  -1.3  752  293           
15 10.10.13 050 (СВ) 20000 м    10/4 600 м кучево-дожд., средняя 
[Cb cap|Ac As]
+8.6 +0.1 55 +10  1009.6  -2.2  750  293           
18 10.10.13 320 (СЗ) 20000 м    10/4 600 м кучево-дожд., средняя 
[Cb cap|Ac As]
+7.6 +1.2 64 +9  1007.3  -2.3  748  293           
21 10.10.13 050 (СВ) 20000 м    10/10 720 м кучево-дожд. 
[Cb cap]
+9.2 -0.4 51 +10  1004.8  -2.5  747  291  +7.6        сухая 
00 11.10.13 050 (СВ) 20000 м    10/10 660 м 
[Sc]
+9.2 +0.6 55 +10  1003.3  -1.4  746  290           
03 11.10.13 070 (В) 20000 м    10/10 840 м 
[Sc]
+10.4 +1.9 56 +12  1000.8  -2.5  744  288           
06 11.10.13 050 (СВ) 20000 м    10/10 960 м 
[Sc]
+10.2 +3.6 64 +10  998.7  -2.1  742  288           
09 11.10.13 320 (СЗ) 4000 м  слаб. дождь  10/10 450 м 
[Ns]
+8 +6.9 93 +8  998.1  -0.6  742  289    +11.1  0.4     
12 11.10.13 340 (С) 4000 м  слаб. дождь  10/10 420 м 
[Frnb|Ns]
+7.8 +7.2 96 +8  997.3  -0.8  741  289           
18 11.10.13 250 (З) 10 км  слаб. дождь  10/10 800 м 
[Sc]
+5.2 +4.3 94 +6  997.6  0.4  741  292           
21 11.10.13 250 (З) 10 км  слаб. дождь  10/10 960 м 
[Sc]
+4.2 +3 92 +4  998.6  742  294  +4.1    15    влажная 
00 12.10.13 290 (З) 20000 м  {дождь}  10/8 960 м средняя 
[Sc|Ac und]
+4.6 +1.3 79 +4  1000.1  1.5  743  294  +3.7         
03 12.10.13 290 (З) 20000 м    10/0 средняя 
[Ac As]
+6.1 +1.3 71 +6  1001.1  744  293           
06 12.10.13 290 (З) 20000 м  в посл. час дождь  10/3 1000 м средняя 
[Sc|As op]
+6.6 +1.9 72 +6  1002.5  1.4  745  293           
09 12.10.13 290 (З) 20000 м  слаб. ливневой дождь  10/10 840 м кучево-дожд. 
[Cb cap]
+5.1 +2.1 81 +4  1005.3  2.7  747  295    +6.7  0.1     
15 12.10.13 290 (З) 20000 м  {ливн. осадки}  9/3 600 м кучево-дожд., средняя 
[Cb cap|Ac As]
+5.5 +0 68 +5  1008.3  1.2  749  296           
18 12.10.13 290 (З) 20000 м  {ливн. осадки}  10/0 средняя 
[Ac As]
+4.8 -0.2 70 +4  1010.1  1.8  750  297           
00 13.10.13 290 (З) 20000 м    ясно 
+7.3 -1.8 52 +7  1015  2.5  754  296  +1.6         
03 13.10.13 290 (З) 20000 м    ясно 
+12 -4 32 +12  1015.3  0.5  755  292           
06 13.10.13 290 (З) 4{10}  20000 м    ясно 
+13.6 -6.4 24 +13  1015  -0.3  754  290           
18 13.10.13 360 (С) 20000 м    3/0 средняя 
[Ac lent]
+0.1 -2.6 82 +1  1015.5  -1.4  754  304           
00 14.10.13 290 (З) 20000 м    ясно 
+7.3 -1.8 52 +7  1015  2.5  754  296  +1.6         
09 14.10.13 250 (З) 7-10{13}  20000 м    8/8 600 м кучево-дожд. 
[Cb cap]
+2.6 -4.4 60 -1  1012.5  4.1  752  301    +7.1     
12 14.10.13 270 (З) 5{13}  20000 м    8/3 1000 м средняя 
[Sc diur, vesp|Ac trans]
+0.8 -6.4 59 -2  1015  2.2  754  304           
15 14.10.13 250 (З) 6{11}  20000 м    3/0 средняя 
[Ac trans]
+0.3 -6.7 59 -3  1015.1  0.1  754  304           
18 14.10.13 250 (З) 20000 м    ясно 
-0.6 -6.2 66 -3  1015.1  754  305           
00 15.10.13 270 (З) 5-11{11}  20000 м    8/1 1000 м средняя, верхняя 
[Cu hum|Ac lent|Ci fib]
+1.3 -7.7 51 -1  1017.8  1.7  756  304           
03 15.10.13 290 (З) 8{13}  20000 м    6/0 средняя, верхняя 
[Ac lent|Ci fib]
+3.5 -9.5 38 1019  1.4  757  302           
06 15.10.13 290 (З) 3{11}  20000 м    1/0 верхняя 
[Ci fib]
+5 -10.4 32 +4  1019.9  0.9  758  301           
12 15.10.13 290 (З) 20000 м    ясно 
-1.3 -9.3 55 -1  1024.7  2.1  761  309           
15 15.10.13 320 (СЗ) 20000 м    ясно 
-2.3 -9.5 58 -3  1024.7  761  310           
18 15.10.13 250 (З) 20000 м    ясно 
-4.7 -9.5 69 -4  1025.1  0.1  761  313           
00 16.10.13 290 (З) 20000 м    ясно 
-1 -9.7 52 -2  1024.9  -0.3  761  309           
03 16.10.13 320 (СЗ) 20000 м    ясно 
+3.8 -9 39 +2  1022.3  -2.3  760  303           
06 16.10.13 340 (С) 20000 м    ясно 
+5.1 -12 28 +3  1021.2  -1.1  759  301           
12 16.10.13 290 (З) 20000 м    ясно 
-0.3 -9 52 1022.3  0.9  759  307           
15 16.10.13 320 (СЗ) 20000 м    ясно 
-2.6 -8.7 63 -2  1022.4  0.1  759  310           
18 16.10.13 290 (З) 20000 м    ясно 
-6.4 -8 88 -6  1022.7  0.1  760  314           
00 17.10.13 290 (З) 20000 м    ясно 
-0.5 -8 57 -1  1023.8  0.5  761  308           
03 17.10.13 360 (С) 20000 м    ясно 
+6 -10 31 +7  1023  -0.6  760  301           
06 17.10.13 250 (З) 20000 м    ясно 
+8.9 -9.9 25 +8  1022  -0.9  759  297           
09 17.10.13 250 (З) 20000 м    ясно 
+4 -9.7 36 +4  1022.8  0.7  760  303    +9.6       
12 17.10.13 250 (З) 20000 м    ясно 
-0.6 -8 57 1023.8  0.8  761  308           
15 17.10.13 340 (С) 20000 м    ясно 
-3 -6.1 79 -3  1024.5  0.5  761  311           
18 17.10.13 340 (С) 20000 м    ясно 
-4.9 -6.6 88 -4  1025.3  0.7  761  313           
00 18.10.13 тихо ()   10 км    ясно 
-0.6 -4.7 74 -1  1027.7  1.4  763  309           
03 18.10.13 тихо ()   4000 м  мгла  ясно 
+8.3 -4.3 41 +8  1027.5  0.1  763  299           
06 18.10.13 200 (Ю) 4000 м  мгла  ясно 
+11.5 -5.8 29 +11  1026.3  -1.2  763  295           
12 18.10.13 тихо ()   4000 м  мгла  ясно 
+1 -3.9 70 +1  1028.2  0.7  764  307           
15 18.10.13 340 (С) 4000 м  мгла  ясно 
-1.1 -3.9 81 -2  1028.5  0.3  764  310           
18 18.10.13 360 (С) 4000 м  мгла  ясно 
-1.7 -4.8 79 -1  1028.5  764  310           
00 19.10.13 020 (С) 2000 м  дымка  ясно 
-0.4 -3.1 82 1029.5  0.9  765  309           
03 19.10.13 тихо ()   2000 м  мгла  3/0 верхняя 
[Ci fib]
+5.9 -2.4 55 +6  1029  -0.3  764  302           
06 19.10.13 140 (ЮВ) 2000 м  мгла  6/0 средняя, верхняя 
[Ac trans|Ci fib]
+9.2 -2.1 45 +10  1027.6  -1.3  764  298           
12 19.10.13 тихо ()   4000 м  мгла  ясно 
-0.5 -2 89 -1  1028.9  0.7  764  309           
15 19.10.13 340 (С) 2000 м  мгла  ясно 
+0.8 -1.4 85 +1  1028.9  764  307           
18 19.10.13 360 (С) 2000 м  мгла  ясно 
-0.8 -2 91 1028.3  -0.6  764  309           
00 20.10.13 020 (С) 2000 м  мгла  3/0 верхняя 
[Cc]
+0.4 -1.5 87 1028.3  0.2  764  308           
03 20.10.13 340 (С) 2000 м  мгла  10/0 верхняя 
[Cs]
+7.6 +1.2 64 +9  1026.9  -1.1  763  299           
06 20.10.13 тихо ()   2000 м  мгла  10/0 верхняя 
[Cs]
+11.8 +2.3 52 +12  1025  -1.7  762  294           
12 20.10.13 тихо ()   2000 м  мгла  ясно 
+1.2 -0.2 90 +1  1025.5  762  306           
15 20.10.13 320 (СЗ) 2000 м  мгла  ясно 
-0.8 -1.7 94 1025.5  762  308           
18 20.10.13 340 (С) 2000 м  мгла  ясно 
-1.2 -2.2 93 -1  1025.4  -0.1  762  309           
00 21.10.13 020 (С) 1000 м  дымка  6/0 средняя 
[Ac cast]
+0.6 -0.2 94 +1  1025.9  0.5  762  306  -2         
03 21.10.13 340 (С) 2000 м  мгла  ясно 
+10.1 +2.4 59 +11  1025.4  -0.2  762  296           
06 21.10.13 090 (В) 2000 м  мгла  3/0 верхняя 
[Ci fib]
+13.2 +3.1 50 +14  1024.7  -0.5  761  292           
12 21.10.13 тихо ()   1000 м  мгла  ясно 
+2.2 +1.4 95 +2  1027.2  1.4  763  305           
15 21.10.13 020 (С) 1000 м  мгла  ясно 
+3.3 +1 85 +4  1028  0.8  764  304           
18 21.10.13 340 (С) 2000 м  мгла  ясно 
+0.2 -0.6 94 +1  1028.8  0.6  764  308           
00 22.10.13 020 (С) 2000 м  в посл. час туман  ясно 
+1.5 -0.1 89 +2  1030.7  1.2  766  307  -3.2         
03 22.10.13 тихо ()   4000 м  мгла  ясно 
+8.9 +1.4 59 +9  1029.9  -0.5  765  298           
06 22.10.13 140 (ЮВ) 4000 м  мгла  ясно 
+12.5 +2.1 49 +13  1028.2  -1.5  764  294           
12 22.10.13 340 (С) 2000 м  мгла  ясно 
+1.3 -0.1 90 +2  1029.8  0.5  765  307           
15 22.10.13 050 (СВ) 2000 м  мгла  ясно 
-0.7 -1.3 96 1029.8  765  309           
18 22.10.13 тихо ()   2000 м  мгла  ясно 
-1.8 -2.1 98 -2  1030.2  0.4  765  311           
00 23.10.13 360 (С) 2000 м  дымка  ясно 
+1.6 +0.5 92 +2  1031.2  0.6  766  307           
03 23.10.13 090 (В) 4000 м  мгла  3/0 верхняя 
[Ci fib]
+7.5 +0.4 61 +8  1029.6  -1.3  765  300           
06 23.10.13 090 (В) 10 км    ясно 
+9.8 -1.5 45 +10  1028.2  -1.4  764  297           
09 23.10.13 050 (СВ) 10 км    ясно 
+4.6 -1.7 64 +5  1027.6  -0.7  763  303    +10.1       
12 23.10.13 050 (СВ) 10 км    10/0 средняя, верхняя 
[Ac lent|Cc]
+3 -1.8 71 +2  1027.8  0.2  764  305           
15 23.10.13 тихо ()   10 км    ясно 
-1.4 -3.4 86 -1  1028.1  0.1  764  310           
18 23.10.13 340 (С) 10 км    10/0 средняя 
[Ac und]
+0.6 -1.7 84 +1  1027.4  -0.7  763  307           
00 24.10.13 050 (СВ) 20000 м    10/0 средняя 
[Ac und]
+1.8 -1.9 76 +3  1026.8  0.1  763  306           
03 24.10.13 030 (СВ) 20000 м    10/0 средняя 
[Ac lent]
+3.6 -2 67 +3  1024.9  -1.7  761  303           
06 24.10.13 020 (С) 20000 м  {дождь}  10/4 1000 м средняя 
[Sc|Ac trans]
+5.6 -1.7 59 +5  1022.7  -2.1  760  300           
12 24.10.13 тихо ()   20000 м    ясно 
+0.6 -1.7 84 +1  1022  -0.3  759  305           
15 24.10.13 310 (СЗ) 20000 м    ясно 
-1 -2.2 92 1021  -1  758  307           
18 24.10.13 тихо ()   20000 м    10/0 верхняя 
[Cs]
-1.6 -3.5 87 -2  1019.8  -1.2  758  307           
00 25.10.13 030 (СВ) 20000 м    10/0 средняя 
[Ac As]
+3.5 -2.5 65 +2  1017.7  -0.4  756  301           
06 25.10.13 040 (СВ) 4{11}  4000 м  ливневой дождь  10/10 600 м кучево-дожд. 
[Cb cap]
+3.5 +1.7 88 +2  1015  -0.8  754  300           
09 25.10.13 020 (С) 4000 м  слаб. дождь{ливн. осадки}  10/10 800 м 
[Ns]
+3.2 +1.9 91 +2  1014.7  -0.3  754  300    +5.5     
12 25.10.13 030 (СВ) 10 км  слаб. дождь{ливн. осадки}  10/8 1410 м средняя 
[Sc|As op]
+3.7 +0.6 80 +2  1014.4  -0.2  754  300           
18 25.10.13 360 (С) 10 км  слаб. дождь  10/0 средняя 
[As op]
+2.5 -0.8 79 +3  1014.3  0.1  754  301           
21 25.10.13 340 (С) 10 км  {дождь}  9/0 средняя 
[Ac As]
+2.6 -2.3 70 +3  1014.2  -0.1  754  301  +2.4    0.4    влажная 
00 26.10.13 350 (С) 20000 м  {дождь}  9/0 средняя 
[Ac As]
+3.1 -1.3 73 +4  1014.9  0.6  754  301  +1.6         
03 26.10.13 060 (СВ) 20000 м    8/3 600 м кучево-дожд., средняя, верхняя 
[Cb cap|Ac lent|Cc]
+6.9 -2 53 +6  1014.4  -0.4  754  296           
06 26.10.13 070 (В) 20000 м    6/4 600 м кучево-дожд., средняя 
[Cb cap|Ac lent]
+8.4 -3.4 43 +8  1013.7  -0.6  753  295           
12 26.10.13 140 (ЮВ) 20000 м    10/5 1000 м средняя 
[Sc|Ac As]
+4.2 -2.3 63 +5  1015.5  0.9  754  300           
15 26.10.13 тихо ()   20000 м    3/0 средняя 
[Ac lent]
-0.3 -3 82 -0  1015.8  0.1  755  305           
18 26.10.13 340 (С) 20000 м    6/0 средняя 
[Ac trans]
-1.2 -3.2 86 -1  1016.5  0.7  755  306           
00 27.10.13 020 (С) 20000 м    8/0 средняя, верхняя 
[Ac lent|Cc]
-0.1 -3.7 77 +1  1018.9  1.3  757  305  -4.2         
03 27.10.13 190 (Ю) 20000 м    3/0 средняя, верхняя 
[Ac lent|Cs]
+6.4 -2.7 52 +5  1018.1  -0.6  756  298           
06 27.10.13 210 (ЮЗ) 20000 м    5/5 1000 м 
[Cu med, cong]
+8.2 -3.3 44 +8  1017.5  -0.5  756  296           
09 27.10.13 180 (Ю) 20000 м    ясно 
+3.7 -3.3 60 +3  1018.6  757  301    +8.4       
12 27.10.13 160 (Ю) 20000 м    ясно 
-1 -2.9 87 1020  1.2  758  307           
15 27.10.13 тихо ()   20000 м    ясно 
-2.8 -3.8 93 -3  1020.6  0.6  758  309           
18 27.10.13 360 (С) 20000 м    10/0 средняя 
[As trans]
-2.1 -3.6 89 -2  1020.5  -0.1  758  308           
00 28.10.13 050 (СВ) 10 км    8/0 средняя 
[As trans]
-0.2 -1.7 90 1020.7  -0.2  758  306           
03 28.10.13 350 (С) 10 км    10/0 средняя 
[As op]
+1.9 -0.6 84 +3  1020  -0.5  758  303           
06 28.10.13 160 (Ю) 4000 м  слаб. дождь  10/0 средняя 
[As op]
+2.8 +1.2 89 +2  1019.2  -0.8  757  302           
09 28.10.13 тихо ()   4000 м  дымка{дождь}  10/6 600 м средняя 
[Ac As]
+1.4 +0.6 94 +1  1019.8  0.4  758  304    +3  0.0     
12 28.10.13 300 (СЗ) 10 км  {дождь}  6/0 средняя 
[Ac lent]
-0.3 -0.9 96 1020.7  0.9  758  306           
15 28.10.13 270 (З) 10 км    ясно 
-2.5 -5.1 82 -2  1021.7  759  309           
18 28.10.13 300 (СЗ) 10 км    ясно 
-3.4 -6.6 79 -5  1022.6  0.7  759  311           
00 29.10.13 тихо ()   20000 м    ясно 
-2.3 -5.5 79 -2  1023.1  0.5  760  309  -7.5         
03 29.10.13 240 (ЮЗ) 20000 м    ясно 
+3 -5.4 54 +2  1021.7  -1.2  759  303           
06 29.10.13 350 (С) 20000 м    ясно 
+6.1 -5.9 42 +7  1020.3  -1.4  758  299           
09 29.10.13 250 (З) 20000 м    ясно 
-0.7 -6.4 65 -2  1021.1  0.6  758  307    +6.4       
12 29.10.13 330 (СЗ) 20000 м    ясно 
-1 -8.4 57 1021.9  0.8  759  308           
15 29.10.13 250 (З) 20000 м    ясно 
-6.1 -8 86 -6  1022.5  0.4  759  314           
18 29.10.13 280 (З) 20000 м    ясно 
-8.1 -9.5 90 -8  1022.5  -0.2  759  316           
00 30.10.13 290 (З) 20000 м    8/0 средняя, верхняя 
[Ac lent|Ci]
-2.8 -6.9 73 -2  1022.7  0.8  760  310           
03 30.10.13 260 (З) 20000 м    8/0 средняя, верхняя 
[Ac lent|Cc]
+3.8 -8 42 +3  1021.6  -0.9  759  302           
06 30.10.13 190 (Ю) 20000 м    ясно 
+6.3 -7.9 35 +7  1020.3  -1.3  758  299           
12 30.10.13 210 (ЮЗ) 20000 м    ясно 
-0.2 -5.8 66 -1  1020.7  758  306           
15 30.10.13 190 (Ю) 20000 м    10/0 средняя 
[As trans]
-0.6 -4.4 75 1020.1  -0.6  758  306           
18 30.10.13 170 (Ю) 20000 м    10/0 средняя 
[Ac As]
+0 -3.7 76 +1  1019.1  -1  757  305           
00 31.10.13 240 (ЮЗ) 20000 м    4/0 средняя 
[Ac trans]
+3 -4.2 59 +2  1019.2  0.9  757  302           
03 31.10.13 300 (СЗ) 20000 м    1/1 1000 м 
[Cu med, cong]
+8.5 -1.8 48 +7  1019.1  757  296           
06 31.10.13 290 (З) 3{10}  20000 м    1/1 1000 м 
[Cu med, cong]
+8 -4.8 40 +7  1020  0.9  758  297           
12 31.10.13 270 (З) 20000 м    8/0 средняя, верхняя 
[Ac trans|Ci fib]
+2.3 -4.4 61 +2  1024.1  1.8  761  305           
15 31.10.13 тихо ()   20000 м    ясно 
-1.5 -4.4 81 -2  1025.4  762  309           
18 31.10.13 тихо ()   20000 м    ясно 
-4.2 -5.8 89 -4  1025.7  0.1  762  312           
00 01.11.13 тихо ()   20000 м    ясно 
+0.8 -2.4 79 +1  1026.6  0.9  763  307  -5.7         
03 01.11.13 230 (ЮЗ) 20000 м    ясно 
+8.7 -4.1 40 +8  1024  -2.2  761  298           
06 01.11.13 250 (З) 5{11}  20000 м    ясно 
+10.3 -3.7 37 +9  1021.9  -2.1  759  295           
09 01.11.13 240 (ЮЗ) 20000 м    ясно 
+5.8 -4.7 47 +4  1021.5  -0.5  759  300    +10.6       
12 01.11.13 160 (Ю) 20000 м    ясно 
+2.8 -1.7 72 +2  1021.1  -0.4  759  303           
15 01.11.13 190 (Ю) 20000 м    ясно 
-0.4 -1.9 90 1020.7  -0.6  758  306           
18 01.11.13 040 (СВ) 20000 м    ясно 
-3.3 -4.4 92 -3  1020.8  -0.1  758  310           
00 02.11.13 340 (С) 10 км    8/0 верхняя 
[Cc]
-0.5 -2.6 86 1021.3  1.3  759  307  -5.2         
03 02.11.13 070 (В) 4000 м  дымка  10/0 верхняя 
[Cc]
+6.5 -0.6 60 +7  1018.4  -2.7  757  298           
06 02.11.13 220 (ЮЗ) 10 км    6/0 верхняя 
[Cs]
+10.1 -2.1 42 +10  1016.2  -2.1  755  294           
12 02.11.13 200 (Ю) 4000 м  мгла  4/0 средняя 
[Ac lent]
+4.4 -1.7 64 +4  1016  755  300           
15 02.11.13 тихо ()   4000 м  мгла  ясно 
+0.6 -1.4 86 +1  1015.4  -0.8  754  303           
18 02.11.13 тихо ()   4000 м  мгла  ясно 
-0.4 -2.5 86 -0  1014.8  -0.6  754  304           
00 03.11.13 тихо ()   4000 м  мгла  4/0 средняя 
[Ac trans]
-0.4 -1.9 90 -0  1014.6  0.2  754  304  -2.8         
03 03.11.13 160 (Ю) 2000 м  мгла  8/0 средняя, верхняя 
[Ac As|Cc]
+8.4 +0.1 56 +9  1013.1  -1.2  753  294           
06 03.11.13 тихо ()   2000 м  мгла  9/0 средняя, верхняя 
[Ac lent|Cs]
+10.4 +0.4 50 +10  1012.3  -0.8  752  292           
12 03.11.13 320 (СЗ) 4000 м  мгла  ясно 
+3.3 -1.7 70 +3  1015.3  1.2  754  300           
15 03.11.13 290 (З) 4000 м  мгла  ясно 
+0.4 -2.6 80 +1  1016.1  0.6  755  304           
18 03.11.13 тихо ()   4000 м  мгла  ясно 
-0.3 -2.7 84 -0  1016.9  0.8  755  305           
00 04.11.13 210 (ЮЗ) 10 км    ясно 
+0.3 -2 84 +1  1018.9  757  305  -5.3         
03 04.11.13 150 (ЮВ) 10 км    ясно 
+8.7 -0.4 53 +10  1017.9  -0.7  756  295           
06 04.11.13 240 (ЮЗ) 10 км    ясно 
+12.1 -1.4 39 +11  1015.8  -1.9  755  291           
12 04.11.13 150 (ЮВ) 10 км    ясно 
+1.4 -1.4 82 +1  1017.1  0.5  755  303           
15 04.11.13 220 (ЮЗ) 10 км    ясно 
-1.2 -1.8 96 -3  1016.8  -0.3  755  306           
18 04.11.13 230 (ЮЗ) 10 км    ясно 
+2.4 -2.2 72 +1  1016.6  755  302           
21 04.11.13 130 (ЮВ) 10 км    ясно 
-1.5 -3 90 -1  1016.8  755  306  -1.7         
00 05.11.13 010 (С) 4000 м  дымка  ясно 
+1 -2.2 79 +2  1017.2  0.4  756  304  -2.4         
03 05.11.13 тихо ()   4000 м  мгла  ясно 
+7.7 -0.9 54 +8  1016  -0.9  755  296           
06 05.11.13 160 (Ю) 4000 м  мгла  8/0 верхняя 
[Cc]
+11.1 -0.9 43 +11  1014.7  -1.3  754  292           
12 05.11.13 тихо ()   4000 м  мгла  10/0 средняя, верхняя 
[Ac lent|Cc]
+0.5 -1.8 85 +1  1013.9  -1  753  303           
15 05.11.13 030 (СВ) 4000 м  мгла  10/0 средняя 
[Ac und]
+0 -2.1 86 +1  1012.5  -1.4  752  303           
18 05.11.13 360 (С) 4000 м  мгла  10/0 средняя 
[Ac und]
+0.2 -0.9 92 +1  1010.5  -2  751  302           
00 06.11.13 140 (ЮВ) 2000 м  дымка  10/0 средняя 
[Ac und]
+1.3 +0.2 92 +2  1007.6  -1  748  300           
03 06.11.13 020 (С) 2000 м  дымка  10/0 средняя 
[Ac As]
+4.5 +2 84 +5  1004.9  -2.5  747  296           
06 06.11.13 тихо ()   2000 м  слаб. дождь  10/10 300 м 
[Frnb|Ns]
+4.3 +3.1 92 +4  1003.5  -1.3  746  295           
12 06.11.13 340 (С) 2000 м  дымка{ливн. осадки, дождь}  10/0 средняя 
[Ac As]
+2.6 +2.1 96 +3  1003.7  746  297           
15 06.11.13 090 (В) 4000 м  слаб. ливневой снег  10/6 600 м кучево-дожд., средняя 
[Cb cap|Ac As]
+0.3 -0.5 94 -1  1005  746  300           
18 06.11.13 090 (В) 2000 м  снег{ливн. осадки}  10/0 средняя 
[As op]
-1.5 -2.4 94 -2  1006.1  1.1  747  303           
21 06.11.13 060 (СВ) 2000 м  снег  10/0 средняя 
[As op]
-2.9 -3.9 93 -5  1006.5  0.4  748  305  -3.1    равномерный
мокрый или
старый снег
100% 
00 07.11.13 060 (СВ) 2000 м  слаб. снег  10/0 средняя 
[As op]
-3 -4.3 91 -3  1009.1  2.4  749  306  -3.4         
03 07.11.13 тихо ()   20000 м  {снег}  9/9 600 м кучево-дожд. 
[Cb cap]
-0.9 -4.1 79 -1  1009.2  0.3  750  304           
06 07.11.13 230 (ЮЗ) 20000 м  {снег}  6/4 600 м кучево-дожд., средняя 
[Cb cap|Ac lent]
+1.1 -6 59 +2  1009.6  0.4  750  302           
15 07.11.13 310 (СЗ) 20000 м    10/0 средняя 
[As trans]
-8.9 -16.8 53 -12  1018.7  2.4  756  316           
18 07.11.13 300 (СЗ) 20000 м    ясно 
-11.4 -17.6 60 -11  1021.3  2.6  758  320           
00 08.11.13 310 (СЗ) 20000 м    ясно 
-11 -20.6 45 -13  1026.2  2.6  762  321           
03 08.11.13 300 (СЗ) 20000 м    ясно 
-6.1 -18.9 36 -8  1026.4  0.4  762  316           
06 08.11.13 250 (З) 20000 м    ясно 
-3.5 -16.9 35 -6  1026.8  0.4  763  313           
09 08.11.13 230 (ЮЗ) 20000 м    ясно 
-8.9 -15.6 58 -9  1028.3  1.3  764  319    -3.4       
12 08.11.13 тихо ()   20000 м    ясно 
-13.1 -15.8 80 -13  1029.2  0.7  764  325           
15 08.11.13 тихо ()   20000 м    ясно 
-14.3 -15.6 90 -14  1029.1  -0.1  764  326           
18 08.11.13 тихо ()   20000 м    8/0 верхняя 
[Cs]
-13.3 -16 80 -13  1027.6  -1.5  763  325           
00 09.11.13 030 (СВ) 2000 м  снег  10/0 средняя 
[As op]
-11.8 -14.6 80 -15  1020.7  -3.6  758  320           
03 09.11.13 030 (СВ) 2000 м  снег  10/0 средняя 
[As op]
-9.6 -11.7 85 -11  1016.3  -4.4  755  316           
06 09.11.13 350 (С) 4000 м  слаб. снег  10/3 300 м средняя 
[St|Ac As]
-8 -11.2 78 -8  1014.6  -1.6  753  314           
12 09.11.13 тихо ()   4000 м  слаб. снег  10/0 средняя 
[As trans]
-8.8 -10.8 85 -9  1012.7  -1.5  752  314           
15 09.11.13 320 (СЗ) 10 км  {снег}  3/0 средняя 
[Ac trans]
-13.3 -14.6 90 -13  1011.2  -1.7  751  319           
18 09.11.13 250 (З) 10 км  {снег}  ясно 
-11.4 -12.7 90 -15  1009.7  -1.3  750  316           
00 10.11.13 290 (З) 20000 м    3/0 средняя, верхняя 
[Ac lent|Ci fib]
-10.6 -15.9 65 -12  1008.7  0.1  749  315           
03 10.11.13 300 (СЗ) 20000 м  позёмок  3/1 1000 м средняя 
[Cu hum|Ac lent]
-8.6 -17 51 -11  1008.8  0.1  749  313           
06 10.11.13 290 (З) 20000 м  позёмок  4/0 средняя, верхняя 
[Ac lent|Ci fib]
-7.7 -16.8 48 -10  1008.6  -0.2  749  312           
Время (UTC), дата Ветер
(°,м/с) 
Видим.   Явления Облачность Т
(°С)
Тd
(°С)
f(%) Тe
(°С)
Pmin
(гПа)
dP
(гПа)
Po
(мм)
O2
(г/м3)
Тmin Tmax R s Состояние
почвы